Skip Page Navigation
NASA JPL Caltech
NASA Logo - Jet Propulsion Laboratory + View the NASA Portal
+ Near-Earth Object (NEO) Program
Search JPL
JPL Home Earth Solar System Stars & Galaxies Technology
JPL Solar System Dynamics
BODIES ORBITS EPHEMERIDES TOOLS PHYSICAL DATA DISCOVERY FAQ SITE MAP
JPL Small-Body Database Browser
Search: [ help ]  
19969 Davidfreedman (1988 PR)
Classification: Main-belt Asteroid          SPK-ID: 2019969
Ephemeris | Orbit Diagram | Orbital Elements | Physical Parameters | Discovery Circumstances ]

[ show orbit diagram ]
Orbital Elements at Epoch 2456400.5 (2013-Apr-18.0) TDB
Reference: MPO231554 (heliocentric ecliptic J2000)
 Element Value Uncertainty (1-sigma)   Units 
e 0.0424076 n/a  
a 2.3568677 n/a AU
q 2.2569186 n/a AU
i 6.83172 n/a deg
node 170.57078 n/a deg
peri 110.41437 n/a deg
M 338.36295 n/a deg
tp 2456479.9322347
(2013-Jul-06.43223470)
n/a JED
period 1321.6036603
3.62
n/a
n/a
d
yr
n 0.27239634 n/a deg/d
Q 2.4568168 n/a AU
  Orbit Determination Parameters
   # obs. used (total)      747  
   first obs. used      1988-??-??  
   last obs. used      2012-05-21  
   # oppositions      13  
   planetary ephem.      DE403  
   condition code      0  
   fit RMS      0.58  
   data source      MPC:mpn  
   producer      MPCLINUX  

Additional Information
 T_jup = 3.543 

Ephemeris | Orbit Diagram | Orbital Elements | Physical Parameters | Discovery Circumstances ]

Physical Parameter Table
Parameter Symbol Value Units Sigma Reference Notes
absolute magnitude H 14.8 mag n/a PDS3 (MPO 7688)  

19969 Davidfreedman           Discovered 1988 Aug. 11 by A. J. Noymer at Siding Spring.
David A. Freedman (b. 1938), professor of statistics at the University of California, Berkeley, was the 2003 recipient of the National Academy of Sciences' Carty Award. His published books include Statistical models: Theory and Practice, Approximating countable Markov chains and Brownian motion and diffusion.
NOTE: some special characters may not display properly (any characters within {} are an attempt to place the proper accent above a character)
Reference: 20060413/MPCPages.arcLast Updated: 2006-04-17

Alternate Designations
 1988 PR = 1998 HT40 
Ephemeris | Orbit Diagram | Orbital Elements | Physical Parameters | Discovery Circumstances ]
ABOUT SSD CREDITS/AWARDS PRIVACY/COPYRIGHT GLOSSARY LINKS
FirstGov 2013-May-18 22:20 UT
(server date/time)  
NASA Home Page
Site Manager:   Donald K. Yeomans
Webmaster  Alan B. Chamberlin